Regional Weather Roundup
Issued by NWS Little Rock, AR

Home | Current Version | Previous Version | Graphics & Text | Print | Product List | Glossary On
Versions: 1 2 3 4 5 6 7 8 9 10 11 12 13 14 15 16 17 18 19 20 21 22 23 24 25 26 27 28 29 30 31
000
ASUS44 KLZK 190805
RWRLZK

WEATHER ROUNDUP FOR ARKANSAS
NATIONAL WEATHER SERVICE LITTLE ROCK AR
200 AM CST FRI JAN 19 2018

NOTE: "FAIR" INDICATES FEW OR NO CLOUDS BELOW 12,000 FEET WITH NO
SIGNIFICANT WEATHER AND/OR OBSTRUCTIONS TO VISIBILITY.

ARZ001-003-010-029-190900-
NORTHWEST ARKANSAS

CITY           SKY/WX    TMP DP  RH WIND       PRES   REMARKS
FAYETTEVILLE   CLOUDY    32   9  38 SW12      30.19F WCI  23
FORT SMITH     CLOUDY    23  16  74 CALM      30.26F
HARRISON       CLOUDY    27  11  51 S8        30.16F WCI  19
BENTONVILLE    CLOUDY    31  13  47 S8        30.18F WCI  23
ROGERS         CLOUDY    31  13  47 S12       30.17F WCI  22
SILOAM SPGS    CLOUDY    28  13  53 S13       30.18F WCI  17
HIGHFILL       CLOUDY    31  11  43 SW13      30.17F WCI  21
$$

ARZ004-005-016-190900-
NORTH CENTRAL ARKANSAS

CITY           SKY/WX    TMP DP  RH WIND       PRES   REMARKS
BATESVILLE     CLOUDY    31  15  52 SW9       30.27F WCI  23
FLIPPIN        CLOUDY    28  13  53 S3        30.21F
MTN HOME       CLOUDY    29  12  49 SW6       30.18F WCI  23
$$

ARZ040-041-190900-
WEST CENTRAL ARKANSAS

CITY           SKY/WX    TMP DP  RH WIND       PRES   REMARKS
MENA           CLOUDY    30  16  55 CALM      30.27S
MOUNT IDA      CLOUDY    25  14  63 CALM      30.26F
$$

ARZ009-017-025-026-028-190900-
NORTHEAST ARKANSAS

CITY           SKY/WX    TMP DP  RH WIND       PRES   REMARKS
JONESBORO      FAIR      25  20  81 SW7       30.29F WCI  17
NEWPORT        FAIR      24  20  84 S12       30.29F WCI  13
WALNUT RIDGE   FAIR      24  20  84 S13       30.26F WCI  12
BLYTHEVILLE    FAIR      24  19  81 SW13      30.30F WCI  12
$$

ARZ022-023-033-042-044-190900-
CENTRAL ARKANSAS

CITY           SKY/WX    TMP DP  RH WIND       PRES   REMARKS
LITTLE ROCK    CLOUDY    23  15  71 S3        30.31F
N LITTLE ROCK    N/A     30  16  56 SW6       30.26F WCI  24
JACKSONVILLE   CLOUDY    22  17  78 CALM      30.29F
SEARCY         FAIR      17  17 100 CALM        N/A
HOT SPRINGS    CLOUDY    24  17  74 CALM      30.30F
RUSSELLVILLE   CLOUDY    23  14  68 CALM      30.27F
CLINTON        FAIR      16  14  93 CALM      30.29S
$$

ARZ036-190900-
EAST ARKANSAS

CITY           SKY/WX    TMP DP  RH WIND       PRES   REMARKS
WEST MEMPHIS   FAIR      23  19  85 S7        30.32F WCI  15
$$

ARZ050-053-066-070-073-190900-
SOUTHWEST ARKANSAS

CITY           SKY/WX    TMP DP  RH WIND       PRES   REMARKS
ARKADELPHIA    FAIR      20  18  92 CALM      30.34F
CAMDEN         FAIR      19  16  86 CALM      30.34F
TEXARKANA      PTCLDY    33  18  53 S8        30.31F WCI  26
EL DORADO      CLOUDY    27  20  75 CALM      30.34F
DE QUEEN       CLOUDY    19  17  92 CALM      30.30F
$$

ARZ056-057-069-190900-
SOUTHEAST ARKANSAS

CITY           SKY/WX    TMP DP  RH WIND       PRES   REMARKS
PINE BLUFF     FAIR      28  17  63 SW9       30.33F WCI  19
STUTTGART      FAIR      25  19  78 SW8       30.32F WCI  16
MONTICELLO     FAIR      30  17  58 SW5       30.34F WCI  25

$$






USA.gov is the U.S. government's official web portal to all federal, state and local government web resources and services.